Total_Precipitation_Accumulation
0.32 0.66 1.03 0.92 0.78 0.51 0.65 0.31 0.11 0.22 0.48 0.30 0.25 0.16 0.20 0.25 0.27 0.41 0.22 0.20 0.14 0.10 0.17 0.41 0.89 0.79 0.69 0.60 0.47 0.42 0.50 0.70 0.94 1.08 1.10 0.93 0.54 0.43 0.36 0.37 0.34 0.33 0.45 0.50 0.46 0.67 0.73 0.47 0.31
0.51 0.78 0.90 1.15 0.71 0.29 0.18 0.09 0.07 0.07 0.24 0.35 0.47 0.29 0.29 0.43 0.25 0.19 0.29 0.17 0.08 0.08 0.19 0.24 1.01 0.92 0.71 0.56 0.47 0.35 0.46 0.59 0.67 0.94 1.11 1.12 0.80 0.66 0.55 0.46 0.32 0.34 0.43 0.49 0.26 0.52 0.75 0.44 0.33
0.98 0.85 0.98 0.89 0.46 0.16 0.13 0.03 0.03 0.04 0.11 0.36 0.69 0.60 0.55 0.58 0.23 0.16 0.14 0.12 0.11 0.15 0.23 0.41 1.18 1.27 0.95 0.66 0.44 0.47 0.50 0.58 0.54 0.65 1.04 1.35 1.41 1.07 1.13 0.74 0.48 0.51 0.52 0.53 0.19 0.48 0.64 0.49 0.36
0.85 1.34 1.21 0.54 0.11 0.04 0.05 0.02 0.04 0.02 0.08 0.19 0.57 0.70 0.90 1.05 0.68 0.31 0.15 0.14 0.19 0.37 0.56 1.05 1.24 1.42 1.23 0.86 0.64 0.54 0.53 0.66 0.67 0.69 0.95 1.26 1.72 1.76 1.51 0.97 0.56 0.44 0.42 0.45 0.28 0.32 0.41 0.38 0.31
1.11 1.47 0.94 0.32 0.03 0.00 0.02 0.01 0.06 0.04 0.05 0.15 0.38 0.44 0.49 0.90 0.81 0.71 0.56 0.29 0.28 0.61 0.91 1.28 1.48 1.25 1.14 0.96 0.74 0.61 0.62 0.68 0.71 0.83 1.00 1.09 1.03 1.58 1.65 1.21 0.69 0.45 0.45 0.66 0.60 0.35 0.43 0.38 0.31
1.62 1.31 0.73 0.24 0.01 0.00 0.01 0.01 0.04 0.11 0.13 0.29 0.47 0.41 0.28 0.43 0.84 1.28 1.44 1.07 0.88 0.87 1.11 1.67 1.99 1.87 1.33 1.02 0.92 0.65 0.64 0.69 0.72 0.76 1.07 1.23 0.91 0.99 1.18 1.04 0.67 0.48 0.55 0.86 0.79 0.58 0.49 0.42 0.42
1.24 1.01 0.67 0.16 0.03 0.01 0.01 0.03 0.03 0.09 0.11 0.18 0.34 0.51 0.38 0.38 0.55 1.03 2.44 2.46 1.80 1.55 1.65 1.65 2.17 2.36 2.02 1.52 1.17 0.98 0.75 0.68 0.57 0.63 0.88 0.93 0.71 0.66 0.70 0.79 0.68 0.68 0.70 0.81 0.85 0.78 0.68 0.54 0.54
1.05 1.09 0.63 0.32 0.13 0.03 0.01 0.05 0.06 0.03 0.05 0.07 0.21 0.42 0.38 0.20 0.44 0.87 2.10 3.68 3.01 2.32 2.27 2.48 2.80 2.81 2.10 1.92 1.62 1.03 0.79 0.68 0.58 0.62 0.80 0.66 0.55 0.41 0.46 0.33 0.42 0.65 0.67 0.78 0.85 0.78 0.82 0.76 0.71
1.36 2.36 1.20 0.35 0.11 0.08 0.00 0.02 0.08 0.06 0.04 0.04 0.14 0.26 0.16 0.36 0.83 0.92 1.87 3.33 3.87 3.02 2.63 2.53 2.98 2.68 2.46 2.05 1.93 1.58 1.14 0.82 0.49 0.56 0.69 0.48 0.39 0.30 0.21 0.16 0.16 0.34 0.54 0.64 0.80 0.84 0.72 0.55 0.49
2.23 1.90 0.82 0.20 0.15 0.20 0.14 0.04 0.09 0.10 0.14 0.13 0.17 0.22 0.22 0.41 0.99 0.95 1.14 2.15 3.65 3.04 2.82 3.03 2.57 2.80 2.55 2.52 2.62 2.11 1.74 1.00 0.58 0.45 0.52 0.48 0.59 0.51 0.41 0.48 0.43 0.44 0.51 0.50 0.68 0.78 0.64 0.44 0.36
1.37 1.63 0.30 0.08 0.28 0.53 0.36 0.06 0.06 0.12 0.19 0.04 0.09 0.18 0.38 0.78 1.05 1.23 0.75 0.89 2.08 3.51 2.83 2.40 2.30 2.80 2.84 2.91 2.92 2.36 1.83 1.24 1.01 0.96 1.17 1.04 0.75 0.50 0.46 0.49 0.43 0.59 0.61 0.55 0.65 0.58 0.33 0.33 0.37
0.98 0.57 0.48 0.32 0.24 0.58 0.49 0.27 0.26 0.22 0.14 0.03 0.06 0.27 0.52 0.83 1.23 1.37 1.17 0.89 1.17 2.43 3.96 3.26 2.58 2.48 2.51 3.53 3.35 3.01 1.86 1.44 1.04 0.87 0.99 1.31 1.05 0.64 0.47 0.49 0.51 0.58 0.55 0.63 0.73 0.83 0.78 0.59 0.51
0.67 0.47 0.33 0.47 0.48 0.36 0.57 0.81 0.47 0.34 0.13 0.05 0.13 0.33 0.43 0.65 1.04 1.17 1.42 1.25 1.20 1.46 3.05 4.09 3.02 2.89 2.75 2.51 3.92 3.78 3.07 1.52 1.15 1.00 0.87 1.02 1.30 1.05 0.84 0.91 0.81 0.82 0.71 0.57 0.66 0.87 1.00 1.06 1.15
0.28 0.50 0.63 0.82 0.83 0.94 0.83 0.76 0.81 0.39 0.17 0.23 0.29 0.37 0.28 0.37 0.81 1.08 1.26 0.99 0.96 1.30 1.95 3.45 3.77 2.83 2.99 2.15 2.24 3.76 4.52 3.94 1.40 0.91 0.86 0.91 1.29 1.77 2.72 2.87 2.70 2.24 2.12 2.08 1.85 1.48 1.46 1.56 1.40
0.35 0.80 0.91 1.03 1.03 1.19 1.16 0.97 0.80 0.36 0.21 0.33 0.37 0.46 0.58 0.37 0.52 0.93 1.33 0.98 0.74 1.04 1.48 1.97 3.85 3.18 2.39 2.91 1.85 2.21 3.53 4.54 4.51 1.69 0.78 0.74 1.01 1.32 1.42 2.35 2.27 1.85 1.66 1.72 1.71 1.81 1.57 1.41 1.23
0.46 0.90 1.52 0.83 1.11 1.13 1.81 1.69 0.26 0.28 0.38 0.44 0.34 0.42 0.62 0.54 0.37 0.52 1.04 1.54 1.09 1.12 1.09 1.57 2.12 3.42 2.91 1.77 2.42 2.53 2.54 3.21 3.80 3.78 1.88 0.74 0.60 0.81 1.19 1.03 0.80 0.82 0.85 0.89 0.86 0.93 1.04 0.99 0.88
0.63 0.78 0.97 0.88 0.87 1.29 1.72 1.69 0.44 0.26 0.47 0.40 0.36 0.29 0.36 0.71 0.72 0.71 0.70 1.03 1.34 1.35 1.46 1.50 1.89 2.41 3.18 2.79 2.13 2.52 3.06 2.95 2.82 3.00 2.68 1.84 0.99 0.56 0.56 0.72 0.77 0.72 0.69 0.62 0.62 0.76 0.81 0.86 0.75
0.45 0.49 0.45 0.61 0.57 1.24 1.41 1.31 0.67 0.42 0.41 0.46 0.31 0.23 0.22 0.31 0.81 0.87 0.62 0.81 0.94 1.22 1.79 1.89 2.00 2.46 3.22 3.80 3.93 3.84 3.54 3.11 2.96 2.62 2.63 2.31 1.67 1.02 0.81 0.87 1.00 1.02 0.89 0.73 0.65 0.67 0.74 0.71 0.71
0.42 0.29 0.28 0.27 0.29 0.70 1.03 0.74 0.62 0.70 0.60 0.55 0.52 0.28 0.22 0.21 0.54 1.51 1.17 1.15 1.26 1.15 1.32 1.99 2.35 2.52 3.34 3.58 3.92 3.71 3.59 2.93 2.36 2.15 2.30 2.41 2.32 1.79 1.17 1.01 1.05 1.01 0.87 0.87 0.94 1.00 0.92 0.77 0.82
0.52 0.49 0.42 0.38 0.60 0.70 0.80 0.67 0.44 0.68 0.69 0.56 0.73 0.52 0.29 0.18 0.24 1.15 1.48 1.64 1.24 1.01 1.37 1.33 1.89 2.43 2.53 2.97 2.97 3.41 3.27 3.10 2.75 2.58 2.17 2.24 2.02 2.01 1.75 1.43 1.09 0.84 0.90 0.91 0.83 0.80 0.92 0.96 1.23
0.68 0.51 0.36 0.62 0.58 0.69 0.81 0.83 0.44 0.45 0.44 0.51 0.62 0.92 0.60 0.38 0.30 0.50 1.15 1.49 1.55 1.26 1.20 1.51 1.74 2.08 2.24 2.58 3.35 3.71 4.09 4.10 3.78 3.04 2.66 2.49 2.27 2.21 2.11 1.79 1.68 1.55 1.29 0.99 0.94 0.85 0.82 0.95 1.07
0.98 0.37 0.45 0.60 0.96 0.85 0.72 1.10 0.27 0.30 0.46 0.42 0.44 0.73 0.79 0.53 0.58 0.63 0.82 1.24 1.17 1.27 1.24 1.28 1.79 2.44 2.87 2.70 2.85 3.12 3.54 3.80 3.65 3.72 3.34 2.97 2.77 2.73 2.88 2.81 2.57 2.30 1.91 1.80 1.86 1.83 1.66 1.69 1.45
0.93 0.47 0.53 0.60 0.80 0.95 0.56 0.86 0.22 0.16 0.31 0.31 0.23 0.31 0.66 0.81 0.87 1.04 0.88 1.21 1.24 1.26 1.42 1.27 1.45 1.87 3.05 3.70 3.85 3.73 3.31 3.39 3.39 3.44 3.52 3.21 3.07 2.78 2.59 2.76 3.08 3.06 3.15 2.76 2.39 2.38 2.35 2.29 2.32
1.17 1.37 1.11 0.90 1.00 1.67 0.68 0.85 0.28 0.41 0.36 0.29 0.37 0.21 0.55 1.16 1.43 1.52 1.35 1.32 1.24 1.18 1.35 1.40 1.25 1.50 2.06 3.51 4.91 4.97 4.40 3.73 3.74 4.01 3.68 3.73 3.08 2.66 2.34 2.76 2.92 3.10 2.80 2.59 2.72 2.64 2.38 2.23 1.94
1.64 1.87 2.58 2.63 2.39 1.07 0.39 0.92 0.64 0.23 0.25 0.24 0.43 0.20 0.40 1.15 1.34 1.70 1.44 1.21 1.29 1.14 1.15 1.05 1.01 0.96 1.35 1.95 2.93 3.93 4.37 3.21 2.72 2.61 2.81 2.97 2.72 2.34 2.25 1.76 2.10 2.27 2.44 2.66 2.35 2.21 2.09 2.09 2.26
1.04 1.28 2.34 2.11 1.46 0.64 0.70 1.05 0.71 0.31 0.24 0.31 0.50 0.37 0.31 0.55 0.91 1.44 1.45 1.30 1.41 1.36 1.11 1.22 1.01 0.91 0.83 1.44 2.13 2.56 2.96 3.16 2.63 2.26 2.06 1.88 1.76 1.51 1.50 1.54 1.39 1.40 1.55 1.78 1.88 1.73 1.57 1.50 1.53
1.05 1.15 0.79 1.23 0.76 0.91 0.90 0.87 0.79 0.43 0.24 0.38 0.46 0.40 0.36 0.41 0.66 1.09 1.49 1.42 1.24 1.46 1.07 1.31 1.19 0.86 0.78 0.81 1.22 1.67 1.72 2.02 2.18 2.12 1.74 1.49 1.54 1.48 1.32 1.39 1.46 1.42 1.47 1.54 1.59 1.53 1.38 1.30 1.13
0.78 0.54 0.90 1.31 1.29 0.94 0.68 0.42 0.86 0.75 0.74 0.73 0.65 0.59 0.55 0.66 0.98 1.16 1.58 1.71 1.26 1.51 1.38 1.20 1.39 1.04 0.76 0.78 0.71 0.82 1.14 1.48 1.65 1.87 1.76 1.46 1.59 1.50 1.71 1.38 1.09 1.11 1.16 1.37 1.71 1.68 1.50 1.42 1.38
0.62 0.63 0.84 0.70 0.63 0.93 0.67 0.69 0.93 0.79 0.91 0.82 0.78 1.01 1.09 1.23 1.33 1.27 1.37 1.49 1.22 1.24 1.64 1.30 1.48 1.48 1.18 0.87 0.65 0.56 0.66 1.17 1.68 1.52 1.75 1.52 1.42 1.55 1.52 1.53 1.47 1.32 1.17 1.14 1.23 1.21 1.28 1.54 1.62
0.53 0.37 0.58 0.92 0.92 0.89 0.73 0.63 0.52 0.60 0.71 0.78 0.81 1.11 1.17 1.34 1.40 1.46 1.41 1.48 1.30 1.13 1.41 1.47 1.32 1.54 1.32 0.96 0.73 0.81 0.57 0.62 1.11 1.40 1.31 1.31 1.12 1.05 1.07 0.90 0.69 0.59 0.77 0.87 0.82 0.86 0.96 1.06 1.10